Location: Chiroubles
(46.1812°N, 4.6660°E)
Time: 17:08:02
(UTC+00:00)

Meteor 1-5 Rocket - Pass Details

Date: 15 August 2020
Orbit: 788 x 916 km, 81.2° (Epoch: 22 September)

Event Time Altitude Azimuth Distance (km) Brightness Sun altitude
Exits shadow 21:18:38 35° 179° (S) 1,437 5.0 -21.6°
Maximum altitude 21:21:18 79° 99° (E) 933 4.2 -21.9°
Drops below altitude 10° 21:27:13 10° 13° (NNE) 2,581 7.2 -22.5°
Sets 21:29:39 0° 13° (NNE) 3,511 8.0 -22.8°
